User: anonymous
Location: Prairie State College
(41.5244°N, 87.6382°W)
Time: 02:50:59
(UTC-05:00)
Language:

Cosmos 1943 - Orbit

View from above orbital plane
View from above orbital plane
View from above satellite
View from above satellite

Ground track
Ground track

The orbit data is extracted from the following two-line orbital elements,

1 19119U 88039A   14113.12399249  .00000333  00000-0  19689-3 0  1276
2 19119 071.0045 358.7463 0011483 358.5244 163.1736 14.14914914339262
Epoch (UTC): 23 April 2014 02:58:32
Eccentricity: 0.0011483
inclination: 71.0045°
perigee height: 834 km
apogee height: 851 km
right ascension of ascending node: 358.7463°
argument of perigee: 358.5244°
revolutions per day: 14.14914914
mean anomaly at epoch: 163.1736°
orbit number at epoch: 33926

The dashed part of the orbit path shows where the satellite is in the earth's shadow,  

DLR